Regional Weather Roundup
Issued by NWS San Angelo, TX

Home | Current Version | Previous Version | Text Only | Print | Product List | Glossary On
Versions: 1 2 3 4 5 6 7 8 9 10 11 12 13 14 15 16 17 18 19 20 21 22 23 24 25 26 27 28 29 30 31 32 33 34 35 36 37 38 39 40 41 42 43 44 45 46 47 48 49 50
000
ASUS44 KSJT 212210
RWRSJT
WEST CENTRAL TEXAS REGIONAL WEATHER ROUNDUP
NATIONAL WEATHER SERVICE SAN ANGELO TX
500 PM CDT FRI JUL 21 2017

NOTE: "FAIR" INDICATES FEW OR NO CLOUDS BELOW 12,000 FEET WITH NO
SIGNIFICANT WEATHER AND/OR OBSTRUCTIONS TO VISIBILITY.

TXZ049-054-064>066-071>073-076>078-098-099-113-114-127-128-139-140-
154-155-168>170-212300
...LOCATIONS ACROSS WEST CENTRAL TEXAS...

CITY           SKY/WX    TMP DP  RH WIND       PRES   REMARKS
SAN ANGELO     SUNNY     99  56  23 SE13G26   29.94F
ABILENE        MOSUNNY   96  60  30 SE9       29.95F
DYESS AFB      MOSUNNY   99  64  31 SE17      29.93F
JUNCTION       PTSUNNY   98  60  28 SE8G17    29.95F
SWEETWATER     PTSUNNY   98  55  24 SE16G22   30.00F
BROWNWOOD      LGT RAIN  99  63  30 S10       29.94F
COLEMAN        CLEAR     98  58  26 SE9G30    29.96F
SONORA         SUNNY     95  57  28 SE9G15    30.01F
OZONA          FAIR      99  54  22 S12G21    30.00F
BRADY          NOT AVBL
$$

TEXAS PANHANDLE/OKLAHOMA PANHANDLE

CITY           SKY/WX    TMP DP  RH WIND       PRES   REMARKS
AMARILLO       SUNNY     93  49  22 S10G25    30.02F
BORGER         SUNNY     99  50  19 S18G25    29.96F
CANADIAN       MOSUNNY  101  55  21 S15       29.92F
DALHART        SUNNY     99  46  16 SW14G21   30.01F
DUMAS          CLEAR     96  46  18 S16G25    30.00F
GUYMON         NOT AVBL
HEREFORD       PTCLDY    97  48  18 S16       30.04S
PAMPA          MOCLDY   102  46  15 S17G23    29.99F
PERRYTON       SUNNY    101  53  20 S15G23    29.93F
$$

SOUTHERN PANHANDLE/SOUTH PLAINS/ROLLING PLAINS

CITY           SKY/WX    TMP DP  RH WIND       PRES   REMARKS
LUBBOCK        MOSUNNY   95  55  26 S17G25    30.00F
SNYDER         MOSUNNY   98  58  26 S20G25    29.97F
CHILDRESS      MOSUNNY   99  55  23 S12G25    29.92F
SEMINOLE       PTCLDY    96  55  24 S10G16    30.00F
$$

PERMIAN BASIN

CITY           SKY/WX    TMP DP  RH WIND       PRES   REMARKS
MIDLAND        MOSUNNY   97  56  25 SE14G22   29.96F
ODESSA         MOSUNNY   96  55  25 S13       29.97F
WINK           CLOUDY    93  57  29 S15G26    29.95F
$$

FAR WEST/SOUTHWEST MOUNTAINS/TRANS PECOS

CITY           SKY/WX    TMP DP  RH WIND       PRES   REMARKS
ALPINE         CLOUDY    73  60  65 SE5       30.19R THUNDER
DRYDEN           N/A     94  65  38 SE16G25   29.94F
EL PASO        FAIR      91  61  36 SE6G18    30.01F
FORT STOCKTON  CLOUDY    83  65  54 S14G23    30.00F
GUADALUPE PASS CLOUDY    76  59  55 SW22      30.18F
MARFA          CLOUDY    76  61  59 N9G24     30.15R THUNDER
PECOS          CLOUDY    85  62  45 S8        29.98R
$$

DALLAS/FORT WORTH METROPLEX

CITY           SKY/WX    TMP DP  RH WIND       PRES   REMARKS
DFW AIRPORT    MOSUNNY   99  68  36 S13       29.91F
FTW MEACHAM    MOSUNNY  100  68  35 S5        29.91F
DAL-EXECUTIVE  SUNNY     98  68  37 SE9       29.92F
GRAND PRAIRIE  SUNNY     99  63  30 E7        29.93F
ADDISON        MOSUNNY   97  66  36 S6G17     29.93F
MESQUITE       CLEAR     97  66  36 SE6       29.94F
LANCASTER      CLEAR     97  69  40 SE8G16    29.94F
$$

NORTH CENTRAL TEXAS

CITY           SKY/WX    TMP DP  RH WIND       PRES   REMARKS
SHRMAN/DENISON MOCLDY    94  69  43 S10       29.94F
GAINESVILLE    MOSUNNY   96  69  41 SE10      29.95S
BRIDGEPORT     PTCLDY    99  64  31 SE12      29.93F
DENTON         MOSUNNY   98  68  37 VRB6      29.91F
WAXAHACHIE     CLEAR     98  67  36 SE8       29.94F
GRANBURY       PTCLDY   100  64  30 SE8       29.93F
$$

WESTERN NORTH TEXAS

CITY           SKY/WX    TMP DP  RH WIND       PRES   REMARKS
WICHITA FALLS  SUNNY    100  64  30 S8        29.89F
VERNON         CLEAR    102  50  17 S10G18    29.90F
BRECKENRIDGE   CLEAR    100  60  26 SE12G21   29.92F
COMANCHE       SUNNY     99  64  31 SE3       29.95F
$$

CENTRAL AND SOUTH CENTRAL TEXAS

CITY           SKY/WX    TMP DP  RH WIND       PRES   REMARKS
AUSTIN/BERGSTM MOSUNNY  100  63  29 SE9       29.92F
WACO           SUNNY    101  66  31 S8        29.92F
HILLSBORO      PTCLDY    98  67  36 E7        29.93F
TEMPLE         MOSUNNY  100  65  31 SE9       29.93F
KILLEEN-GRAY   SUNNY     99  60  27 E14       29.92F
FORT HOOD      SUNNY     99  63  29 S10       29.91F
GEORGETOWN     MOSUNNY   99  64  32 S12G18    29.92F
LAGO VISTA     FAIR      99  61  28 SE9       29.97F
SAN MARCOS     SUNNY     99  63  30 S14       29.94F
NEW BRAUNFELS  SUNNY    100  63  29 S12       29.92F
RANDOLPH AFB   MOSUNNY   99  62  29 SE12      29.93F
SAN ANTONIO    MOSUNNY   99  62  29 SE16      29.94F
STINSON        SUNNY    102  61  25 SE18      29.90F
PLEASANTON     NOT AVBL
LA GRANGE      SUNNY     96  70  41 S3        29.91F
GIDDINGS       PTCLDY    98  64  32 CALM      29.94F
$$

EAST TEXAS

CITY           SKY/WX    TMP DP  RH WIND       PRES   REMARKS
PARIS            N/A     96  74  48 S8          N/A
CLARKSVILLE    NOT AVBL
TYLER          SUNNY     95  68  41 SW8       29.96F
LONGVIEW       MOSUNNY   96  72  45 S8        29.94F
PALESTINE      CLEAR     94  71  46 E7        29.96F
NACOGDOCHES    MOSUNNY   93  72  49 SE9       29.94F
$$

TEXAS HILL COUNTRY AND EDWARDS PLATEAU

CITY           SKY/WX    TMP DP  RH WIND       PRES   REMARKS
LLANO            N/A    N/A N/A N/A MISG        N/A
HORSESHOE BAY  FAIR      96  59  28 S7        29.94F
KERRVILLE      SUNNY     97  62  31 S8        29.98F
FREDERICKSBRG  SUNNY     96  55  25 S7        29.98F
ROCKSPRINGS    PTCLDY   N/A N/A N/A S9G18     30.02F
HONDO          SUNNY    103  59  23 SE14      29.92F
UVALDE         CLEAR    100  58  25 E10G20    29.91F
DEL RIO        PTSUNNY  101  61  26 SE12G20   29.87F
$$

SOUTHEAST TEXAS

CITY           SKY/WX    TMP DP  RH WIND       PRES   REMARKS
COLLEGE STN    MOSUNNY   97  68  38 VRB5      29.93F
CALDWELL       NOT AVBL
CROCKETT       CLEAR     93  73  52 S5        29.97F
BRENHAM        PTSUNNY   96  67  38 SE3       29.94F
HUNTSVILLE     MOSUNNY   95  67  39 VRB5      29.96F
CONROE         MOSUNNY   90  74  59 E6        29.95F
HOUSTON BUSH   PTSUNNY   90  73  57 SE13      29.94F
HOUSTON HOBBY  CLOUDY    93  75  55 SE13      29.95F
PERLAND        CLOUDY    87  70  56 S13       29.98F
WHARTON        PTCLDY    93  71  47 S15       29.96F
$$

THE UPPER TEXAS COAST

CITY           SKY/WX    TMP DP  RH WIND       PRES   REMARKS
ORANGE         MOCLDY    91  75  60 S9        29.99S
PORT ARTHUR    MOSUNNY   85  77  77 S5        29.97F
GALVESTON      PTSUNNY   88  79  74 SE10      29.98F
ANGLETON       MOSUNNY   91  75  59 S15       29.97F
BAY CITY       CLEAR     92  74  54 S14       29.96F
$$

TEXAS COASTAL BEND, RIO GRANDE PLAINS DEEP SOUTH TEXAS

CITY           SKY/WX    TMP DP  RH WIND       PRES   REMARKS
VICTORIA       MOSUNNY   96  70  42 S12G21    29.94F
BEEVILLE       FAIR      96  70  42 SE14G20   29.92F
ROCKPORT       SUNNY     91  76  61 SE15      29.95F
PORT ARANSAS   PTCLDY    89  77  68 S12G18    29.96F
PORT LAVACA    CLEAR     91  74  56 SE16      29.95F
CORPUS CHRISTI MOSUNNY   93  75  55 SE15G22   29.94F
KINGSVILLE NAS MOSUNNY   96  75  50 SE18G26   29.92F
COTULLA        MOSUNNY  103  56  21 SE13G25   29.88F
LAREDO         SUNNY    105  61  23 SE17G24   29.90F
BROWNSVILLE    LGT RAIN  90  75  61 SE18      29.94F
PORT ISABEL    MOSUNNY   92  75  57 SE22G29   29.93F
HEBBRONVILLE   PTCLDY    99  62  29 S13G18    29.92F
MCALLEN        MOSUNNY  100  67  33 SE20G25   29.90F
WESLACO        MOSUNNY   97  70  40 S18G25    29.90F
FALFURRIAS     PTCLDY    97  71  42 SE14G22   29.90F
EDINBURG       PTCLDY   101  63  28 S16G24    29.90F
$$




USA.gov is the U.S. government's official web portal to all federal, state and local government web resources and services.